Content
SEND FEEDBACK

Daily
Averages
Monthly
Summary
United States of America

ASHEVILLE, NORTH CAROLINA


Home > North America > United States > North Carolina
Elevation: 2240 feet     Latitude: 35 36N     Longitude: 082 32W

WEATHER
 
SELECT A DAY
Number of Records: 229,440;   Date Range: 1/1/95 - 10/20/14
 
SHARE

PRINT THIS DATA

[ ← Previous Day ]
WEATHER ALMANAC - JULY 28, 2013
[ Next Day → ]
[ °C ]   °F
Weather ElementAverageHighLow
Temperature70.4 °F81 °F (3:54 pm)64.4 °F (5:45 am)
Dewpoint64 °F66.2 °F (3:36 am)61 °F (6:54 pm)
Humidity81.7 %100 % (3:36 am)54 % (3:54 pm)
Barometer29.99 in30.06 in (12:01 pm)29.91 in (2:54 am)
Wind Speed2.5 mph10.4 mph (5:54 pm)
Wind Gust17.3 mph (6:54 pm)
Weather ElementAverage
Visibility6.7 mi
Wind DirectionESE (102.9 °)

Weather ElementTotal
Precipitation---
Cooling Degree Days7.7 (Base 65)
Growing Degree Days22.7 (Base 50)
Averaged from 41 records on July 28, 2013
WEATHER CONDITIONS BREAKOUT
WIND DIRECTION BREAKOUT
WEATHER BY HOUR - JULY 28, 2013
[ °C ]   °F
Local TimeTemperatureDewpointHumidityBarometerVisibilityWind DirectionWind SpeedGust SpeedPrecipitationEventsConditions
1:54 AM69.1 °F66.0 °F90 %29.92 in8.0 miCalmOvercast
2:54 AM68.0 °F66.0 °F93 %29.91 in6.0 miCalmMostly Cloudy
3:36 AM66.2 °F66.2 °F100 %30.00 in5.0 miCalmOvercast
3:45 AM66.2 °F64.4 °F94 %30.00 in6.0 miCalmMostly Cloudy
3:54 AM66.9 °F64.9 °F93 %29.92 in6.0 miCalmPartly Cloudy
4:40 AM66.2 °F64.4 °F94 %30.00 in4.0 miCalmScattered Clouds
4:52 AM66.2 °F64.4 °F94 %29.99 in3.0 miCalmMostly Cloudy
4:54 AM66.0 °F64.9 °F96 %29.91 in3.0 miCalmMostly Cloudy
5:04 AM66.2 °F64.4 °F94 %30.00 in4.0 miCalmOvercast
5:30 AM66.2 °F64.4 °F94 %30.00 in1.8 miSouth (190°)3.5 mphOvercast
5:45 AM64.4 °F64.4 °F100 %30.01 in2.0 miSSW (200°)3.5 mphOvercast
5:54 AM64.9 °F64.9 °F100 %29.94 in1.5 miSSE (160°)3.5 mphOvercast
6:02 AM64.4 °F64.4 °F100 %30.01 in1.0 miSouth (190°)3.5 mphOvercast
6:15 AM64.4 °F64.4 °F100 %30.02 in2.0 miSouth (170°)3.5 mphOvercast
6:31 AM64.4 °F64.4 °F100 %30.03 in3.0 miCalmOvercast
6:54 AM66.0 °F64.9 °F96 %29.95 in3.0 miCalmOvercast
7:28 AM64.4 °F64.4 °F100 %30.03 in2.5 miCalmOvercast
7:36 AM66.2 °F64.4 °F94 %30.03 in3.0 miSE (140°)3.5 mphOvercast
7:54 AM66.0 °F64.0 °F93 %29.97 in3.0 miCalmOvercast
8:54 AM68.0 °F64.9 °F90 %29.98 in5.0 miCalmOvercast
9:01 AM71.6 °F64.4 °F78 %30.05 in5.0 miCalmHaze
9:28 AM69.8 °F64.4 °F83 %30.05 in7.0 miCalmScattered Clouds
9:54 AM73.0 °F64.9 °F76 %29.98 in9.0 miCalmPartly Cloudy
10:20 AM73.4 °F64.4 °F73 %30.05 in10.0 miCalmMostly Cloudy
10:38 AM75.2 °F64.4 °F69 %30.05 in10.0 miCalmMostly Cloudy
10:54 AM75.0 °F64.0 °F69 %29.97 in10.0 miVariable5.8 mphMostly Cloudy
11:54 AM73.9 °F64.0 °F71 %29.98 in10.0 miWest (270°)4.6 mphOvercast
12:01 PM73.4 °F64.4 °F73 %30.06 in10.0 miCalmMostly Cloudy
12:09 PM75.2 °F64.4 °F69 %30.06 in10.0 miCalmMostly Cloudy
12:54 PM77.0 °F64.0 °F64 %29.98 in10.0 miSouth (190°)4.6 mphMostly Cloudy
1:54 PM80.1 °F64.9 °F60 %29.96 in10.0 miVariable5.8 mphPartly Cloudy
2:54 PM78.1 °F64.0 °F62 %29.95 in10.0 miNorth (350°)9.2 mphMostly Cloudy
3:54 PM81.0 °F63.0 °F54 %29.94 in10.0 miNorth (10°)3.5 mphScattered Clouds
4:54 PM80.1 °F63.0 °F56 %29.94 in10.0 miNorth (350°)8.1 mphMostly Cloudy
5:54 PM80.1 °F62.1 °F54 %29.95 in10.0 miNNW (340°)10.4 mphPartly Cloudy
6:54 PM77.0 °F61.0 °F58 %29.96 in10.0 miNorth (360°)8.1 mph17.3 mphScattered Clouds
7:54 PM73.0 °F62.1 °F68 %29.99 in10.0 miWNW (300°)4.6 mphClear
8:54 PM71.1 °F61.0 °F70 %30.01 in10.0 miNW (310°)5.8 mphClear
9:54 PM71.1 °F61.0 °F70 %30.02 in10.0 miCalmClear
10:54 PM68.0 °F62.1 °F81 %30.03 in10.0 miNNW (330°)8.1 mphClear
11:54 PM68.0 °F61.0 °F78 %30.04 in10.0 miNorth (360°)4.6 mphClear
Hourly data recorded from KAVL, located miles away from Asheville, North Carolina







STORIES FROM OUR PARTNERS